Home > Weather > Nizwa > Past weeks

Flag for Oman Weather for the Past 2 Weeks in Nizwa, Oman

Now
93 °F

Clear.


Feels Like: 93 °F
Forecast: 65 / 101 °F
Wind: 9 mph from Northeast

Location: International Airport

Current Time: May 4, 2016 at 4:01:59 PM

Latest Report: May 4, 2016 at 2:50 PM


Visibility: 5 mi

Pressure: 29.68 "Hg (28.01 "Hg at 522m altitude)

Humidity: 34%

Dew Point: 61 °F

Location of NizwaLocation

Historic Weather in Nizwa — Graph

°F

Nizwa Temperature Yesterday

Maximum temperature yesterday: 93 °F (at 12:50 PM)
Minimum temperature yesterday: 84 °F (at 6:50 AM)
Average temperature yesterday: 89 °F

High & Low Weather Summary for the Past Weeks

 TemperatureHumidityPressure
High108 °F (Apr 30, 10:50 AM)84% (Apr 27, 4:50 AM)29.92 "Hg (Apr 27, 4:50 AM)
Low77 °F (Apr 22, 5:50 AM)6% (Apr 23, 10:50 AM)29.65 "Hg (May 4, 12:50 AM)
Average89 °F34%29.75 "Hg
* Reported Apr 19 1:00 PM — May 4 1:50 PM, Nizwa, Weather by CustomWeather, © 2016

Note: Actual official high and low records may vary slightly from our data, if they occured in-between our weather recording intervals... More about our weather records

Advertising

Nizwa Weather History for the Previous 24 Hours

Scroll right to see more
 ConditionsComfort  
Time TempWeatherWind HumidityBarometerVisibility
1:50 PM
Wed, May 4
95 °FSunny.9 mph25%29.68 "Hg10 mi
12:50 PM95 °FSunny.9 mph28%29.71 "Hg10 mi
11:50 AM95 °FSunny.10 mph22%29.71 "Hg10 mi
10:50 AM95 °FSunny.9 mph19%29.71 "Hg10 mi
9:50 AM95 °FClear.7 mph16%29.74 "Hg6 mi
8:50 AM91 °FClear.2 mph18%29.71 "Hg5 mi
7:50 AM91 °FClear.No wind20%29.71 "Hg5 mi
6:50 AM88 °FClear.2 mph22%29.71 "Hg5 mi
5:50 AM79 °FClear.No wind32%29.71 "Hg5 mi
4:50 AM81 °FClear.2 mph28%29.68 "Hg6 mi
3:50 AM81 °FClear.1 mph28%29.68 "Hg10 mi
2:50 AM82 °FClear.2 mph28%29.65 "Hg10 mi
1:50 AM84 °FPassing clouds.2 mph27%29.65 "HgN/A
12:50 AM82 °FClear.2 mph28%29.65 "Hg6 mi
11:50 PM
Tue, May 3
86 °FClear.No wind25%29.68 "Hg6 mi
10:50 PM86 °FClear.No wind33%29.71 "Hg10 mi
9:50 PM86 °FPassing clouds.2 mph25%29.71 "HgN/A
8:50 PM88 °FPassing clouds.2 mph43%29.71 "HgN/A
7:50 PM90 °FClear.5 mph27%29.68 "Hg10 mi
6:50 PM90 °FClear.5 mph29%29.68 "Hg10 mi
5:50 PM90 °FPassing clouds.5 mph31%29.68 "HgN/A
4:50 PM91 °FPassing clouds.7 mph26%29.68 "HgN/A
Weather by CustomWeather, © 2016

See weather overviewHow to use our weather pages